[Iaude] MPEC T26: 2016 TS [a=2.33,e=0.56,i=2.6,H=25.3]

mpec at si.edu mpec at si.edu
Mon Oct 3 17:15:55 EDT 2016


M.P.E.C. 2016-T26                                Issued 2016 Oct. 3, 21:12 UT
 
     The Minor Planet Electronic Circulars contain information on unusual
         minor planets and routine data on comets.  They are published
    on behalf of Division F of the International Astronomical Union by the
          Minor Planet Center, Smithsonian Astrophysical Observatory,
                          Cambridge, MA 02138, U.S.A.

             Prepared using the Tamkin Foundation Computer Network

                              MPC at CFA.HARVARD.EDU
            URL http://www.minorplanetcenter.net/    ISSN 1523-6714


                                    2016 TS
 
Observations:
     K16T00S* C2016 10 01.45201 03 49 41.33 +03 25 45.7          19.9 VqET026G96
     K16T00S  C2016 10 01.45630 03 49 42.84 +03 25 55.9          20.0 VqET026G96
     K16T00S  C2016 10 01.46058 03 49 44.32 +03 26 07.4          20.8 VqET026G96
     K16T00S  C2016 10 01.46486 03 49 45.84 +03 26 17.9          20.1 VqET026G96
     K16T00S  C2016 10 01.50024 03 49 58.36 +03 27 46.3          20.1 VqET026G96
     K16T00S  C2016 10 01.50221 03 49 58.98 +03 27 50.9          20.1 VqET026G96
     K16T00S HC2016 10 01.50413 03 49 59.83 +03 27 56.6                oET026691
     K16T00S  C2016 10 01.50473 03 49 59.87 +03 27 57.3          20.5 VqET026G96
     K16T00S HC2016 10 01.50627 03 50 00.45 +03 28 00.9                oET026691
     K16T00S  C2016 10 01.50723 03 50 00.77 +03 28 03.9          20.3 VqET026G96
     K16T00S HC2016 10 01.50843 03 50 01.34 +03 28 07.1                oET026691
     K16T00S KC2016 10 02.15307 03 54 18.42 +03 52 34.6                qET026J95
     K16T00S KC2016 10 02.15888 03 54 20.25 +03 52 47.0                qET026J95
     K16T00S KC2016 10 02.16473 03 54 22.16 +03 52 59.8          20.2 RqET026J95
     K16T00S  C2016 10 02.30561103 55 22.04 +03 58 48.8          20.5 VtET026H01
     K16T00S  C2016 10 02.30866603 55 23.00 +03 58 55.4          20.5 VtET026H01
     K16T00S  C2016 10 02.31888303 55 26.10 +03 59 17.9          20.8 VtET026H01
     K16T00S  C2016 10 02.32877703 55 29.10 +03 59 39.6          20.8 VtET026H01
     K16T00S KC2016 10 03.34144604 00 52.14 +04 32 32.0          20.9 VuET026H21
     K16T00S KC2016 10 03.35268704 00 54.81 +04 32 52.1          20.4 VuET026H21
     K16T00S KC2016 10 03.36586404 00 57.94 +04 33 16.1          20.6 VuET026H21
 
Observer details:
691 Steward Observatory, Kitt Peak.  Observer M. T. Read.  0.9-m f/3 reflector
    + CCD.
G96 Mt. Lemmon Survey.  Observer D. C. Fuls.  Measurers E. J. Christensen,
    D. C. Fuls, A. R. Gibbs, A. D. Grauer, J. A. Johnson, R. A. Kowalski,
    S. M. Larson, G. J. Leonard, R. G. Matheny, R. L. Seaman, F. C. Shelly.
    1.5-m reflector + 10K CCD.
H01 Magdalena Ridge Observatory, Socorro.  Observers W. H. Ryan, E. V. Ryan.
    Measurer W. H. Ryan.  2.4-m f/8.9 reflector + CCD.
H21 Astronomical Research Observatory, Westfield.  Observer R. Holmes.
    Measurers S. Foglia, L. Buzzi, T. Linder, R. Holmes.  0.76-m f/3.0
    astrograph + CCD.
J95 Great Shefford.  Observer P. Birtwhistle.  0.40-m f/6.0 Schmidt-Cassegrain
    + CCD.
 
Orbital elements:
2016 TS                                                  Earth MOID = 0.0105 AU
Epoch 2016 July 31.0 TT = JDT 2457600.5                 MPC
M 346.24050              (2000.0)            P               Q
n   0.27801366     Peri.  179.31109     +0.99570697     +0.09248844
a   2.3250125      Node   175.37730     -0.08514009     +0.93073069
e   0.5629954      Incl.    2.61395     -0.03631509     +0.35381672
P   3.55           H   25.3           G   0.15           U   5
Residuals in seconds of arc
161001 G96  0.1-  0.4+    161001 G96  0.1-  0.2+    161002 H01  0.2+  0.5-
161001 G96  0.0   0.2-    161001 691  1.5-  1.6-    161002 H01  0.4+  0.6-
161001 G96  0.4-  0.5+    161001 G96  0.1+  0.6+    161002 H01  0.1-  0.5-
161001 G96  0.1-  0.2+    161001 691  0.4+  0.7-    161002 H01  0.1-  0.4-
161001 G96  1.0+  0.4+    161002 J95  0.3-  0.7+    161003 H21  0.0   0.5-
161001 G96  0.1-  0.1+    161002 J95  0.6-  0.2+    161003 H21  0.0   0.7-
161001 691  0.5+  0.6-    161002 J95  0.2+  0.1+    161003 H21  0.2+  0.3-

Ephemeris:
2016 TS                  a,e,i = 2.33, 0.56, 3                   q = 1.0160
Date    TT    R. A. (2000) Decl.     Delta      r     Elong.  Phase     V
2016 09 03    17 47 54.1 -12 50 16   0.08414 1.0351   106.0    69.5    22.4
...
2016 09 18    19 38 19.3 -19 00 19   0.02367 1.0161   117.9    60.9    19.4
...
2016 09 26    02 29 50.5 -04 14 38   0.02179 1.0205   145.0    34.3    18.5
...
2016 10 02    03 53 21.8 +03 49 12   0.04502 1.0304   130.0    48.0    20.4
2016 10 03    03 59 06.4 +04 23 43   0.04920 1.0326   129.5    48.4    20.6
2016 10 04    04 03 51.9 +04 52 44   0.05341 1.0350   129.3    48.4    20.8
...
2016 10 10    04 20 10.5 +06 41 04   0.07911 1.0520   130.9    45.9    21.6
...
2016 10 18    04 26 44.0 +07 51 41   0.1142  1.0823   136.8    39.1    22.3
...
2016 11 02    04 21 57.6 +09 06 43   0.1848  1.1586   151.9    23.8    23.1

A. U. Tomatic                (C) Copyright 2016 MPC           M.P.E.C. 2016-T26




More information about the Iaude mailing list